DZH652 DAAG-LPMA

Flight info

Callsign DZH652
Flight time N/A
Altitude 34000
Route CHE1C DAHRA UA411 MOS UM744 CARBO M744 GOLFO/N0455F330 T100 ORTOP/N0454F340 DCT BAROK/N0455F330 DCT ASGAM DCT RULET/N0404F230 UN975 RAKUN
Aircraft A321/M-SDE3FGHIRWY/LB1

Departure

Time 2026-04-30 14:05
Airport Houari Boumediene Airport (DAAG)

Arrival

Time N/A
Airport Cristiano Ronaldo International Airport (LPMA)
Time Latitude Longitude Altitude Speed Heading
2026-04-30 13:33 36.69700 3.20105 64 ft 0 kts 90°
2026-04-30 13:50 36.69700 3.20092 62 ft 4 kts 89°
2026-04-30 13:50 36.69699 3.20025 66 ft 4 kts 95°
2026-04-30 13:50 36.69705 3.19996 65 ft 4 kts 141°
2026-04-30 13:51 36.69712 3.19991 61 ft 0 kts 182°
2026-04-30 13:53 36.69707 3.19990 63 ft 4 kts 182°
2026-04-30 13:54 36.69641 3.19987 70 ft 12 kts 182°
2026-04-30 13:54 36.69565 3.19985 70 ft 10 kts 181°
2026-04-30 13:54 36.69503 3.19983 70 ft 8 kts 181°
2026-04-30 13:54 36.69453 3.19957 64 ft 8 kts 225°
2026-04-30 13:55 36.69410 3.19904 67 ft 9 kts 216°
2026-04-30 13:55 36.69349 3.19895 70 ft 10 kts 184°
2026-04-30 13:55 36.69308 3.19821 64 ft 13 kts 262°
2026-04-30 13:55 36.69312 3.19698 70 ft 14 kts 273°
2026-04-30 13:56 36.69316 3.19580 64 ft 13 kts 272°
2026-04-30 13:56 36.69318 3.19476 63 ft 11 kts 270°
2026-04-30 13:56 36.69319 3.19380 63 ft 12 kts 271°
2026-04-30 13:56 36.69321 3.19274 62 ft 13 kts 271°
2026-04-30 13:57 36.69325 3.19154 68 ft 15 kts 272°
2026-04-30 13:57 36.69330 3.19018 71 ft 17 kts 273°
2026-04-30 13:57 36.69331 3.18868 68 ft 18 kts 271°
2026-04-30 13:57 36.69335 3.18704 66 ft 20 kts 271°
2026-04-30 13:58 36.69338 3.18540 71 ft 18 kts 271°
2026-04-30 13:58 36.69346 3.18246 71 ft 16 kts 271°
2026-04-30 13:58 36.69349 3.18117 65 ft 14 kts 271°
2026-04-30 13:59 36.69352 3.17999 70 ft 13 kts 271°
2026-04-30 13:59 36.69355 3.17880 71 ft 16 kts 272°
2026-04-30 13:59 36.69359 3.17727 65 ft 18 kts 272°
2026-04-30 13:59 36.69363 3.17580 63 ft 16 kts 271°
2026-04-30 14:00 36.69366 3.17441 66 ft 16 kts 272°
2026-04-30 14:00 36.69369 3.17156 71 ft 15 kts 259°
2026-04-30 14:00 36.69307 3.17103 74 ft 1 kts 185°
2026-04-30 14:03 36.69263 3.17098 76 ft 6 kts 185°
2026-04-30 14:03 36.69246 3.17096 83 ft 1 kts 185°
2026-04-30 14:03 36.69220 3.17115 86 ft 7 kts 138°
2026-04-30 14:03 36.69206 3.17194 85 ft 11 kts 91°
2026-04-30 14:04 36.69205 3.17226 83 ft 16 kts 92°
2026-04-30 14:04 36.69194 3.17679 74 ft 86 kts 92°
2026-04-30 14:04 36.69173 3.18659 69 ft 138 kts 91°
2026-04-30 14:04 36.69158 3.19535 80 ft 166 kts 88°
2026-04-30 14:05 36.69043 3.21500 798 ft 167 kts 91°
2026-04-30 14:05 36.68964 3.22944 1377 ft 169 kts 89°
2026-04-30 14:05 36.68923 3.24403 1966 ft 166 kts 85°
2026-04-30 14:05 36.69070 3.25330 2164 ft 170 kts 59°
2026-04-30 14:06 36.69891 3.26466 2335 ft 185 kts 34°
2026-04-30 14:06 36.72536 3.27216 2584 ft 217 kts 346°
2026-04-30 14:07 36.74928 3.24682 2941 ft 253 kts 297°
2026-04-30 14:07 36.75764 3.22716 3529 ft 260 kts 297°
2026-04-30 14:07 36.76621 3.20707 4162 ft 265 kts 297°
2026-04-30 14:08 36.78388 3.16579 5313 ft 274 kts 297°
2026-04-30 14:08 36.79293 3.14471 5934 ft 277 kts 296°
2026-04-30 14:08 36.82046 3.11098 7042 ft 287 kts 327°
2026-04-30 14:09 36.83749 3.09797 7619 ft 288 kts 327°
2026-04-30 14:09 36.85467 3.08489 8174 ft 291 kts 326°
2026-04-30 14:09 36.88950 3.05834 9290 ft 295 kts 326°
2026-04-30 14:10 36.90711 3.04484 9822 ft 299 kts 325°
2026-04-30 14:10 36.92500 3.03112 10231 ft 307 kts 325°
2026-04-30 14:10 36.94374 3.01668 10347 ft 325 kts 325°
2026-04-30 14:10 36.96348 3.00139 10473 ft 342 kts 326°
2026-04-30 14:11 36.98419 2.98533 10596 ft 359 kts 326°
2026-04-30 14:11 37.00565 2.96872 10904 ft 367 kts 326°
2026-04-30 14:11 37.02758 2.95181 11385 ft 371 kts 326°
2026-04-30 14:11 37.04780 2.93210 11887 ft 369 kts 310°
2026-04-30 14:12 37.06213 2.90579 12417 ft 366 kts 292°
2026-04-30 14:12 37.06920 2.87550 12963 ft 363 kts 274°
2026-04-30 14:12 37.06846 2.84409 13511 ft 361 kts 257°
2026-04-30 14:12 37.06021 2.81460 14034 ft 360 kts 240°
2026-04-30 14:13 37.04538 2.78938 14492 ft 362 kts 227°
2026-04-30 14:13 37.02823 2.76611 14958 ft 365 kts 227°
2026-04-30 14:13 37.01091 2.74276 15415 ft 368 kts 227°
2026-04-30 14:13 36.99341 2.71920 15859 ft 371 kts 227°
2026-04-30 14:14 36.97572 2.69537 16300 ft 375 kts 227°
2026-04-30 14:14 36.95794 2.67139 16739 ft 378 kts 227°
2026-04-30 14:14 36.93996 2.64713 17159 ft 382 kts 227°
2026-04-30 14:14 36.92188 2.62271 17576 ft 385 kts 227°
2026-04-30 14:15 36.90358 2.59802 17997 ft 388 kts 227°
2026-04-30 14:15 36.88516 2.57321 18395 ft 391 kts 227°
2026-04-30 14:15 36.86659 2.54819 18763 ft 393 kts 227°
2026-04-30 14:15 36.84801 2.52314 19156 ft 395 kts 227°
2026-04-30 14:16 36.82929 2.49795 19552 ft 396 kts 227°
2026-04-30 14:16 36.81048 2.47270 19952 ft 397 kts 227°
2026-04-30 14:16 36.79189 2.44776 20342 ft 398 kts 227°
2026-04-30 14:16 36.77279 2.42214 20743 ft 399 kts 227°
2026-04-30 14:17 36.75381 2.39671 21124 ft 401 kts 227°
2026-04-30 14:17 36.73500 2.37154 21498 ft 402 kts 227°
2026-04-30 14:17 36.71562 2.34569 21871 ft 403 kts 227°
2026-04-30 14:17 36.69646 2.32013 22246 ft 405 kts 227°
2026-04-30 14:18 36.67723 2.29445 22615 ft 406 kts 227°
2026-04-30 14:18 36.65788 2.26866 23005 ft 408 kts 227°
2026-04-30 14:18 36.61933 2.21719 23704 ft 410 kts 229°
2026-04-30 14:19 36.58911 2.15709 24268 ft 413 kts 247°
2026-04-30 14:19 36.57810 2.12409 24555 ft 414 kts 247°
2026-04-30 14:19 36.56699 2.09102 24845 ft 415 kts 247°
2026-04-30 14:20 36.55580 2.05785 25143 ft 417 kts 247°
2026-04-30 14:20 36.54455 2.02458 25423 ft 418 kts 247°
2026-04-30 14:20 36.52183 1.95780 25974 ft 420 kts 247°
2026-04-30 14:21 36.51040 1.92432 26245 ft 422 kts 247°
2026-04-30 14:21 36.49896 1.89071 26526 ft 423 kts 247°
2026-04-30 14:21 36.47606 1.82328 27041 ft 425 kts 247°
2026-04-30 14:22 36.46452 1.78935 27307 ft 426 kts 247°
2026-04-30 14:22 36.44136 1.72148 27837 ft 428 kts 247°
2026-04-30 14:22 36.42967 1.68728 28071 ft 429 kts 247°
2026-04-30 14:23 36.40632 1.61902 28593 ft 432 kts 247°
2026-04-30 14:23 36.38273 1.55042 29233 ft 430 kts 247°
2026-04-30 14:24 36.35928 1.48247 29935 ft 427 kts 247°
2026-04-30 14:24 36.34779 1.44864 30250 ft 425 kts 248°
2026-04-30 14:25 36.32524 1.38108 30864 ft 422 kts 248°
2026-04-30 14:25 36.30308 1.31451 31451 ft 419 kts 248°
2026-04-30 14:26 36.28071 1.24801 32035 ft 416 kts 247°
2026-04-30 14:26 36.26956 1.21498 32334 ft 415 kts 247°
2026-04-30 14:26 36.24731 1.14928 32918 ft 412 kts 247°
2026-04-30 14:27 36.23611 1.11627 33262 ft 409 kts 247°
2026-04-30 14:27 36.22527 1.08443 33633 ft 406 kts 247°
2026-04-30 14:27 36.21437 1.05236 33939 ft 404 kts 247°
2026-04-30 14:28 36.19246 0.98796 34044 ft 409 kts 247°
2026-04-30 14:28 36.18137 0.95532 34042 ft 412 kts 247°
2026-04-30 14:28 36.15915 0.89005 34041 ft 413 kts 247°
2026-04-30 14:29 36.11825 0.77035 34041 ft 412 kts 247°
2026-04-30 14:31 36.05833 0.59615 34051 ft 413 kts 246°
2026-04-30 14:31 36.02456 0.49839 34050 ft 413 kts 246°
2026-04-30 14:32 35.99071 0.40045 34052 ft 413 kts 246°
2026-04-30 14:33 35.96807 0.33523 34066 ft 413 kts 245°
2026-04-30 14:33 35.93404 0.23770 34066 ft 413 kts 245°
2026-04-30 14:34 35.91256 0.17201 34059 ft 414 kts 252°
2026-04-30 14:34 35.90751 0.13692 34063 ft 418 kts 263°
2026-04-30 14:34 35.90819 0.10092 34059 ft 424 kts 273°
2026-04-30 14:35 35.93058 -0.00571 34065 ft 429 kts 280°
2026-04-30 14:36 35.94644 -0.07693 34053 ft 431 kts 279°
2026-04-30 14:36 35.96224 -0.14846 34039 ft 432 kts 279°
2026-04-30 14:37 35.97812 -0.22012 34047 ft 433 kts 279°
2026-04-30 14:37 35.99390 -0.29148 34045 ft 434 kts 279°
2026-04-30 14:38 36.00969 -0.36331 34042 ft 434 kts 279°
2026-04-30 14:38 36.02546 -0.43539 34049 ft 434 kts 279°
2026-04-30 14:39 36.04122 -0.50743 34053 ft 434 kts 279°
2026-04-30 14:39 36.05692 -0.57946 34055 ft 435 kts 279°
2026-04-30 14:40 36.08043 -0.68769 34060 ft 435 kts 279°
2026-04-30 14:40 36.09605 -0.75990 34063 ft 435 kts 279°
2026-04-30 14:41 36.11166 -0.83225 34059 ft 436 kts 279°
2026-04-30 14:41 36.12731 -0.90479 34057 ft 437 kts 279°
2026-04-30 14:42 36.14287 -0.97744 34046 ft 437 kts 279°
2026-04-30 14:42 36.15835 -1.05024 34052 ft 438 kts 279°
2026-04-30 14:43 36.17383 -1.12312 34055 ft 438 kts 279°
2026-04-30 14:43 36.18936 -1.19604 34069 ft 439 kts 278°
2026-04-30 14:44 36.20486 -1.26922 34057 ft 440 kts 278°
2026-04-30 14:44 36.22025 -1.34242 34042 ft 440 kts 278°
2026-04-30 14:45 36.23566 -1.41583 34056 ft 441 kts 278°
2026-04-30 14:45 36.25108 -1.48946 34070 ft 441 kts 278°
2026-04-30 14:46 36.26643 -1.56294 34086 ft 441 kts 279°
2026-04-30 14:46 36.27919 -1.62410 34064 ft 441 kts 278°
2026-04-30 14:47 36.29710 -1.71032 34063 ft 442 kts 279°
2026-04-30 14:47 36.31238 -1.78410 34063 ft 442 kts 278°
2026-04-30 14:48 36.32749 -1.85792 34060 ft 442 kts 278°
2026-04-30 14:48 36.34259 -1.93187 34072 ft 443 kts 278°
2026-04-30 14:49 36.35770 -2.00595 34056 ft 442 kts 276°
2026-04-30 14:49 36.36133 -2.08041 34051 ft 427 kts 258°
2026-04-30 14:50 36.34186 -2.18687 34050 ft 424 kts 252°
2026-04-30 14:51 36.32113 -2.29339 34071 ft 424 kts 251°
2026-04-30 14:52 36.30013 -2.40003 34062 ft 425 kts 251°
2026-04-30 14:52 36.27903 -2.50662 34062 ft 425 kts 251°
2026-04-30 14:53 36.26017 -2.60128 34061 ft 425 kts 251°
2026-04-30 14:54 36.23164 -2.74344 34061 ft 426 kts 251°
2026-04-30 14:55 36.21008 -2.85044 34037 ft 428 kts 251°
2026-04-30 14:56 36.19792 -2.99914 34037 ft 437 kts 261°
2026-04-30 14:57 36.19139 -3.11168 34049 ft 437 kts 260°
2026-04-30 14:58 36.18252 -3.26196 34050 ft 438 kts 260°
2026-04-30 14:58 36.17580 -3.37482 34051 ft 439 kts 260°
2026-04-30 15:00 36.16437 -3.56312 34066 ft 439 kts 260°
2026-04-30 15:01 36.15495 -3.71381 34066 ft 439 kts 260°
2026-04-30 15:01 36.14788 -3.82613 34082 ft 439 kts 260°
2026-04-30 15:02 36.14305 -3.90150 34065 ft 440 kts 259°
2026-04-30 15:03 36.13070 -4.09064 34049 ft 440 kts 259°
2026-04-30 15:04 36.11804 -4.27891 34063 ft 441 kts 259°
2026-04-30 15:06 36.10513 -4.46791 34068 ft 441 kts 259°
2026-04-30 15:07 36.09465 -4.61920 34088 ft 441 kts 259°
2026-04-30 15:08 36.08291 -4.76960 34082 ft 438 kts 257°
2026-04-30 15:09 36.05996 -4.95498 34093 ft 436 kts 256°
2026-04-30 15:10 36.04257 -5.10276 34097 ft 433 kts 256°
2026-04-30 15:11 36.01607 -5.32307 34100 ft 432 kts 256°
2026-04-30 15:13 35.99364 -5.50618 34100 ft 431 kts 256°
2026-04-30 15:14 35.96191 -5.76211 34109 ft 431 kts 256°
2026-04-30 15:17 35.93523 -6.09408 34119 ft 437 kts 265°
2026-04-30 15:19 35.92911 -6.39601 34078 ft 442 kts 265°